Regional Weather Roundup
Issued by NWS Albany, NY

Home | Current Version | Previous Version | Text Only | Print | Product List | Glossary On
Versions: 1 2 3 4 5 6 7 8 9 10 11 12 13 14 15 16 17 18 19 20 21 22 23 24 25 26 27 28 29 30 31 32 33 34 35 36 37 38 39 40 41 42 43 44 45 46 47 48 49 50
000
ASUS41 KALY 182310
RWRALY

NEW YORK STATE HOURLY WEATHER ROUNDUP
NATIONAL WEATHER SERVICE ALBANY NY
600 PM EST THU DEC 18 2014

NOTE: "FAIR" INDICATES FEW OR NO CLOUDS BELOW 12,000 FEET WITH NO
SIGNIFICANT WEATHER AND/OR NO OBSTRUCTIONS TO VISIBILITY.

NYZ032-033-038>043-046>054-057>066-NYZ062>081-190000-
EAST


CITY           SKY/WX    TMP DP  RH WIND       PRES   REMARKS
ALBANY         CLOUDY    35  26  69 NW14G23   29.95R WCI  26
GLENS FALLS    CLOUDY    36  25  64 N3        29.92R
POUGHKEEPSIE   CLOUDY    38  25  59 NW8       29.95S WCI  32
NEWBURGH       PTCLDY    36  28  75 NW21      29.95F WCI  24
MONTGOMERY     CLOUDY    37  27  67 W8        29.96S WCI  31
WHITE PLAINS   MOCLDY    36  26  67 NW14G26   29.92F WCI  27
ISLIP          PTCLDY    38  26  62 NW15G22   29.92F WCI  29
NEW YORK CITY  MOCLDY    39  26  59 NW16G22   29.96S WCI  30
CENTRAL PARK   CLOUDY    40  24  53 NW9G17    29.99S WCI  34
$$

NYZ005>009-017-018-044>046-055-056-190000-
CENTRAL


CITY           SKY/WX    TMP DP  RH WIND       PRES   REMARKS
FULTON         CLOUDY    33  26  75 W14G21    30.02S WCI  23
SYRACUSE       FLURRIES  31  28  89 W13       30.02S WCI  21
ROME           CLOUDY    30  28  92 W10       30.01S WCI  21
ELMIRA         CLOUDY    34  25  69 W9        30.02S WCI  27
BINGHAMTON     CLOUDY    29  28  96 NW8       29.97R FOG     WCI  21
MONTICELLO     CLOUDY    30  27  86 W13       29.94S WCI  20
$$

NYZ026>034-041>043-190000-
NORTH


CITY           SKY/WX    TMP DP  RH WIND       PRES   REMARKS
WATERTOWN      CLOUDY    31  22  69 NW8       30.02S WCI  23
FORT DRUM      NOT AVBL
MASSENA        CLOUDY    27  22  81 W10       30.00R WCI  17
SARANAC LAKE   CLOUDY    23  32 100 W7        29.86S WCI  15
PLATTSBURGH    CLOUDY    31  24  75 NW8G18    29.92R WCI  23
$$

NYZ001>004-010>016-019>021-190000-
WEST


CITY           SKY/WX    TMP DP  RH WIND       PRES   REMARKS
NIAGARA FALLS  FRZ RAIN  30  27  88 NW12      30.09R FOG     WCI  20
BUFFALO        FRZ DRZL  30  27  88 W9        30.08S WCI  22
DUNKIRK        CLOUDY    32  27  81 W14G20    30.11R WCI  22
JAMESTOWN      CLOUDY    28  25  86 W9G18     30.06R WCI  20
WELLSVILLE     CLOUDY    28  23  81 NW17      30.01R WCI  16
ROCHESTER      FRZ DRZL  32  29  88 W7        30.06R FOG     WCI  26
PENN YAN       CLOUDY    31  27  85 W6        30.03R WCI  25
$$

             KEY
       WCI = WIND CHILL INDEX
       VSB = VISIBILITY
       HX  = HEAT INDEX
$$


USA.gov is the U.S. government's official web portal to all federal, state and local government web resources and services.